This is the latest recevied weather packets stored in our database for station/object K1AWR. If no packets are shown the sender has not sent any weather packets the latest 10 day(s).
| Time | Temp. | Humidity | Pressure | Rain* | Wind** | Luminosity | Snow |
|---|---|---|---|---|---|---|---|
| 1777827746 | 11.11° C | 43% | 1009.4 hPa | 0 mm | - | 453 W/m² | - |
| 1777827443 | 11.11° C | 39% | 1009.3 hPa | 0 mm | - | 309 W/m² | - |
| 1777827140 | 11.11° C | 37% | 1009.4 hPa | 0 mm | - | 317 W/m² | - |
| 1777826836 | 11.11° C | 38% | 1009.1 hPa | 0 mm | - | 504 W/m² | - |
| 1777826534 | 11.11° C | 40% | 1009.2 hPa | 0 mm | - | 401 W/m² | - |
| 1777826229 | 10.56° C | 40% | 1009 hPa | 0 mm | - | 258 W/m² | - |
| 1777825928 | 10.56° C | 43% | 1008.9 hPa | 0 mm | - | 155 W/m² | - |
| 1777825624 | 10.56° C | 42% | 1009.3 hPa | 0 mm | - | 154 W/m² | - |
| 1777825323 | 11.11° C | 42% | 1009.1 hPa | 0 mm | - | 222 W/m² | - |
| 1777825019 | 11.11° C | 43% | 1009.1 hPa | 0 mm | - | 215 W/m² | - |
| 1777824714 | 10.56° C | 42% | 1009.2 hPa | 0 mm | - | 177 W/m² | - |
| 1777824412 | 10.56° C | 41% | 1009 hPa | 0 mm | - | 167 W/m² | - |
| 1777824107 | 10.56° C | 43% | 1009 hPa | 0 mm | - | 190 W/m² | - |
| 1777823804 | 10.56° C | 44% | 1008.9 hPa | 0 mm | - | 183 W/m² | - |
| 1777823502 | 10.56° C | 44% | 1009 hPa | 0 mm | - | 127 W/m² | - |
| 1777823198 | 10.56° C | 44% | 1008.9 hPa | 0 mm | - | 125 W/m² | - |
| 1777822896 | 10.56° C | 43% | 1009.1 hPa | 0 mm | - | 139 W/m² | - |
| 1777822594 | 11.11° C | 42% | 1009 hPa | 0 mm | - | 112 W/m² | - |
| 1777822291 | 11.11° C | 43% | 1009 hPa | 0 mm | - | 254 W/m² | - |
| 1777821989 | 11.11° C | 42% | 1009.1 hPa | 0 mm | - | 221 W/m² | - |
| 1777821687 | 11.11° C | 43% | 1009.1 hPa | 0 mm | - | 258 W/m² | - |
| 1777821384 | 11.11° C | 44% | 1009.1 hPa | 0 mm | - | 209 W/m² | - |
| 1777821081 | 11.11° C | 44% | 1009 hPa | 0 mm | - | 175 W/m² | - |
| 1777820778 | 11.67° C | 46% | 1009 hPa | 0 mm | - | 265 W/m² | - |
| 1777820474 | 10.56° C | 47% | 1009.1 hPa | 0 mm | - | 443 W/m² | - |
* Rain latest hour (hover to see other rain measurements)
** Current wind speed in m/s (hover to see current wind gust speed)